Time,TemperatureF,DewpointF,PressureIn,WindDirection,WindDirectionDegrees,WindSpeedMPH,WindSpeedGustMPH,Humidity,HourlyPrecipIn,Conditions,Clouds,dailyrainin,SoftwareType,DateUTC
2013-08-09 00:00:00,71.3,69.5,30.00,SW,224,0.0,2.0,94,0.00,RA,,0.00,WeatherDisplay:10.37,2013-08-09 04:00:00,
2013-08-09 00:05:00,71.3,69.5,30.00,SSW,196,0.0,1.0,94,0.00,RA,,0.00,WeatherDisplay:10.37,2013-08-09 04:05:00,
2013-08-09 00:10:00,71.3,69.5,30.00,SE,143,0.0,1.0,94,0.00,BKN,,0.00,WeatherDisplay:10.37,2013-08-09 04:10:00,
2013-08-09 00:15:00,71.3,69.5,30.00,ENE,58,0.0,2.0,94,0.00,BKN,,0.00,WeatherDisplay:10.37,2013-08-09 04:15:00,
2013-08-09 00:20:00,71.3,69.5,30.00,NNW,330,0.0,1.0,94,0.00,OVC,,0.00,WeatherDisplay:10.37,2013-08-09 04:20:00,
2013-08-09 00:25:00,71.3,69.5,29.99,NNW,331,0.0,4.0,94,0.00,OVC,,0.00,WeatherDisplay:10.37,2013-08-09 04:25:00,
2013-08-09 00:30:00,71.3,69.5,29.99,South,176,0.0,3.0,94,0.00,OVC,,0.00,WeatherDisplay:10.37,2013-08-09 04:30:00,
2013-08-09 00:35:00,71.3,69.5,29.99,South,169,0.0,0.0,94,0.00,BKN,,0.00,WeatherDisplay:10.37,2013-08-09 04:35:00,
2013-08-09 00:40:00,71.3,69.4,29.99,South,169,0.0,1.0,94,0.00,BKN,,0.00,WeatherDisplay:10.37,2013-08-09 04:40:00,
2013-08-09 00:45:00,71.2,69.4,29.99,South,169,0.0,0.0,94,0.00,BKN,,0.00,WeatherDisplay:10.37,2013-08-09 04:45:00,
2013-08-09 00:50:00,71.1,69.3,29.99,South,169,0.0,0.0,94,0.00,BKN,,0.00,WeatherDisplay:10.37,2013-08-09 04:50:00,
2013-08-09 00:55:00,71.0,69.2,29.99,South,169,0.0,0.0,94,0.00,BKN,,0.00,WeatherDisplay:10.37,2013-08-09 04:55:00,
2013-08-09 01:00:00,71.0,69.2,29.99,South,169,0.0,0.0,94,0.00,BKN,,0.00,WeatherDisplay:10.37,2013-08-09 05:00:00,
2013-08-09 01:05:00,70.9,69.1,29.99,South,169,0.0,0.0,94,0.00,BKN,,0.00,WeatherDisplay:10.37,2013-08-09 05:05:00,
2013-08-09 01:10:00,70.9,69.1,29.99,South,169,0.0,0.0,94,0.00,BKN,,0.00,WeatherDisplay:10.37,2013-08-09 05:10:00,
2013-08-09 01:15:00,70.8,69.0,29.98,South,169,0.0,0.0,94,0.00,BKN,,0.00,WeatherDisplay:10.37,2013-08-09 05:15:00,
2013-08-09 01:20:00,70.8,69.0,29.98,South,169,0.0,0.0,94,0.00,BKN,,0.00,WeatherDisplay:10.37,2013-08-09 05:20:00,
2013-08-09 01:25:00,70.7,68.9,29.98,South,169,0.0,0.0,94,0.00,BKN,,0.00,WeatherDisplay:10.37,2013-08-09 05:25:00,
2013-08-09 01:35:00,70.6,68.8,29.98,South,169,0.0,0.0,94,0.00,BKN,,0.00,WeatherDisplay:10.37,2013-08-09 05:35:00,
2013-08-09 01:40:00,70.5,68.7,29.98,South,169,0.0,0.0,94,0.00,BKN,,0.00,WeatherDisplay:10.37,2013-08-09 05:40:00,
2013-08-09 01:45:00,70.4,68.9,29.98,South,169,0.0,0.0,95,0.00,BKN,,0.00,WeatherDisplay:10.37,2013-08-09 05:45:00,
2013-08-09 01:50:00,70.4,68.9,29.98,South,173,0.0,3.0,95,0.00,BKN,,0.00,WeatherDisplay:10.37,2013-08-09 05:50:00,
2013-08-09 01:55:00,70.3,68.8,29.97,South,185,0.0,0.0,95,0.00,BKN,,0.00,WeatherDisplay:10.37,2013-08-09 05:55:00,
2013-08-09 02:00:00,70.3,68.8,29.98,South,187,0.0,0.0,95,0.00,BKN,,0.00,WeatherDisplay:10.37,2013-08-09 06:00:00,
2013-08-09 02:05:00,70.2,68.7,29.98,South,187,0.0,2.0,95,0.00,CLR,,0.00,WeatherDisplay:10.37,2013-08-09 06:05:00,
2013-08-09 02:10:00,70.2,68.7,29.98,South,187,0.0,0.0,95,0.00,CLR,,0.00,WeatherDisplay:10.37,2013-08-09 06:10:00,
2013-08-09 02:15:00,70.1,68.6,29.98,South,187,0.0,0.0,95,0.00,CLR,,0.00,WeatherDisplay:10.37,2013-08-09 06:15:00,
2013-08-09 02:20:00,70.1,68.6,29.98,South,177,0.0,2.0,95,0.00,CLR,,0.00,WeatherDisplay:10.37,2013-08-09 06:20:00,
2013-08-09 02:25:00,70.2,68.7,29.97,NE,51,0.0,1.0,95,0.00,CLR,,0.00,WeatherDisplay:10.37,2013-08-09 06:25:00,
2013-08-09 02:30:00,70.2,68.7,29.97,NE,44,0.0,0.0,95,0.00,CLR,,0.00,WeatherDisplay:10.37,2013-08-09 06:30:00,
2013-08-09 02:35:00,70.3,68.8,29.97,NE,45,0.0,1.0,95,0.00,BKN,,0.00,WeatherDisplay:10.37,2013-08-09 06:35:00,
2013-08-09 02:40:00,70.3,68.8,29.97,NE,50,0.0,1.0,95,0.00,BKN,,0.00,WeatherDisplay:10.37,2013-08-09 06:40:00,
2013-08-09 02:45:00,70.4,68.9,29.97,SSW,195,0.0,1.0,95,0.00,BKN,,0.00,WeatherDisplay:10.37,2013-08-09 06:45:00,
2013-08-09 02:50:00,70.4,68.9,29.97,SW,220,0.0,1.0,95,0.00,BKN,,0.00,WeatherDisplay:10.37,2013-08-09 06:50:00,
2013-08-09 02:55:00,70.4,68.9,29.97,West,269,0.0,1.0,95,0.00,BKN,,0.00,WeatherDisplay:10.37,2013-08-09 06:55:00,
2013-08-09 03:00:00,70.4,68.9,29.96,WSW,249,2.0,5.0,95,0.00,BKN,,0.00,WeatherDisplay:10.37,2013-08-09 07:00:00,
2013-08-09 03:05:00,70.4,68.9,29.96,WSW,242,0.0,1.0,95,0.00,OVC,,0.00,WeatherDisplay:10.37,2013-08-09 07:05:00,
2013-08-09 03:10:00,70.4,68.9,29.96,SSW,210,1.0,2.0,95,0.00,OVC,,0.00,WeatherDisplay:10.37,2013-08-09 07:10:00,
2013-08-09 03:15:00,70.4,68.9,29.96,SSW,208,0.0,1.0,95,0.00,OVC,,0.00,WeatherDisplay:10.37,2013-08-09 07:15:00,
2013-08-09 03:20:00,70.3,68.8,29.96,SW,233,0.0,2.0,95,0.00,OVC,,0.00,WeatherDisplay:10.37,2013-08-09 07:20:00,
2013-08-09 03:25:00,70.3,68.8,29.96,WSW,242,0.0,0.0,95,0.00,OVC,,0.00,WeatherDisplay:10.37,2013-08-09 07:25:00,
2013-08-09 03:30:00,70.3,68.8,29.96,WSW,242,0.0,1.0,95,0.00,OVC,,0.00,WeatherDisplay:10.37,2013-08-09 07:30:00,
2013-08-09 03:35:00,70.3,68.8,29.96,WSW,242,0.0,1.0,95,0.00,OVC,,0.00,WeatherDisplay:10.37,2013-08-09 07:35:00,
2013-08-09 03:40:00,70.3,68.8,29.96,WSW,242,0.0,0.0,95,0.00,OVC,,0.00,WeatherDisplay:10.37,2013-08-09 07:40:00,
2013-08-09 03:45:00,70.3,68.8,29.95,SW,225,0.0,5.0,95,0.00,OVC,,0.00,WeatherDisplay:10.37,2013-08-09 07:45:00,
2013-08-09 03:50:00,70.3,68.8,29.95,South,190,0.0,1.0,95,0.00,OVC,,0.00,WeatherDisplay:10.37,2013-08-09 07:50:00,
2013-08-09 03:55:00,70.3,68.8,29.95,South,186,0.0,3.0,95,0.00,OVC,,0.00,WeatherDisplay:10.37,2013-08-09 07:55:00,
2013-08-09 04:00:00,70.3,68.5,29.95,West,281,0.0,1.0,94,0.00,OVC,,0.00,WeatherDisplay:10.37,2013-08-09 08:00:00,
2013-08-09 04:05:00,70.2,68.4,29.95,NW,309,0.0,3.0,94,0.00,OVC,,0.00,WeatherDisplay:10.37,2013-08-09 08:05:00,
2013-08-09 04:10:00,70.3,68.5,29.95,NNW,338,0.0,1.0,94,0.00,OVC,,0.00,WeatherDisplay:10.37,2013-08-09 08:10:00,
2013-08-09 04:15:00,70.3,68.4,29.95,North,358,1.0,3.0,94,0.00,OVC,,0.00,WeatherDisplay:10.37,2013-08-09 08:15:00,
2013-08-09 04:20:00,70.2,68.4,29.95,NNW,337,0.0,1.0,94,0.00,OVC,,0.00,WeatherDisplay:10.37,2013-08-09 08:20:00,
2013-08-09 04:25:00,70.2,68.4,29.95,SSW,205,0.0,0.0,94,0.00,OVC,,0.00,WeatherDisplay:10.37,2013-08-09 08:25:00,
2013-08-09 04:30:00,70.2,68.4,29.95,SSW,205,0.0,2.0,94,0.00,OVC,,0.00,WeatherDisplay:10.37,2013-08-09 08:30:00,
2013-08-09 04:35:00,70.2,68.4,29.95,SSW,203,0.0,3.0,94,0.00,OVC,,0.00,WeatherDisplay:10.37,2013-08-09 08:35:00,
2013-08-09 04:40:00,70.2,68.4,29.95,SSW,198,0.0,0.0,94,0.00,OVC,,0.00,WeatherDisplay:10.37,2013-08-09 08:40:00,
2013-08-09 04:45:00,70.2,68.4,29.95,SSW,198,0.0,0.0,94,0.00,OVC,,0.00,WeatherDisplay:10.37,2013-08-09 08:45:00,
2013-08-09 04:50:00,70.2,68.4,29.95,SSW,197,0.0,2.0,94,0.00,OVC,,0.00,WeatherDisplay:10.37,2013-08-09 08:50:00,
2013-08-09 04:55:00,70.2,68.4,29.95,South,173,0.0,1.0,94,0.00,OVC,,0.00,WeatherDisplay:10.37,2013-08-09 08:55:00,
2013-08-09 05:00:00,70.2,68.4,29.95,SSE,159,0.0,1.0,94,0.00,OVC,,0.00,WeatherDisplay:10.37,2013-08-09 09:00:00,
2013-08-09 05:05:00,70.2,68.4,29.95,SSE,163,0.0,2.0,94,0.00,OVC,,0.00,WeatherDisplay:10.37,2013-08-09 09:05:00,
2013-08-09 05:10:00,70.1,68.3,29.95,South,175,0.0,2.0,94,0.00,OVC,,0.00,WeatherDisplay:10.37,2013-08-09 09:10:00,
2013-08-09 05:20:00,70.1,68.3,29.95,South,188,0.0,1.0,94,0.00,OVC,,0.00,WeatherDisplay:10.37,2013-08-09 09:20:00,
2013-08-09 05:25:00,70.1,68.3,29.95,South,185,0.0,2.0,94,0.00,OVC,,0.00,WeatherDisplay:10.37,2013-08-09 09:25:00,
2013-08-09 05:30:00,70.0,68.2,29.95,SE,135,0.0,1.0,94,0.00,OVC,,0.00,WeatherDisplay:10.37,2013-08-09 09:30:00,
2013-08-09 05:35:00,70.0,68.2,29.95,ENE,71,0.0,1.0,94,0.00,OVC,,0.00,WeatherDisplay:10.37,2013-08-09 09:35:00,
2013-08-09 05:40:00,69.9,68.1,29.95,ENE,71,0.0,0.0,94,0.00,OVC,,0.00,WeatherDisplay:10.37,2013-08-09 09:40:00,
2013-08-09 05:45:00,69.9,68.1,29.94,ENE,71,0.0,0.0,94,0.00,OVC,,0.00,WeatherDisplay:10.37,2013-08-09 09:45:00,
2013-08-09 05:50:00,69.9,68.1,29.94,ENE,71,0.0,0.0,94,0.00,OVC,,0.00,WeatherDisplay:10.37,2013-08-09 09:50:00,
2013-08-09 05:55:00,69.8,68.0,29.94,ENE,71,0.0,0.0,94,0.00,OVC,,0.00,WeatherDisplay:10.37,2013-08-09 09:55:00,
2013-08-09 06:00:00,69.8,68.0,29.94,ENE,71,0.0,0.0,94,0.00,OVC,,0.00,WeatherDisplay:10.37,2013-08-09 10:00:00,
2013-08-09 06:05:00,69.8,68.3,29.94,East,94,0.0,2.0,95,0.00,OVC,,0.00,WeatherDisplay:10.37,2013-08-09 10:05:00,
2013-08-09 06:10:00,69.8,68.3,29.94,South,179,0.0,0.0,95,0.00,OVC,,0.00,WeatherDisplay:10.37,2013-08-09 10:10:00,
2013-08-09 06:15:00,69.8,68.3,29.94,SSW,192,0.0,0.0,95,0.00,OVC,,0.00,WeatherDisplay:10.37,2013-08-09 10:15:00,
2013-08-09 06:20:00,69.8,68.3,29.95,SSW,192,0.0,0.0,95,0.00,OVC,,0.00,WeatherDisplay:10.37,2013-08-09 10:20:00,
2013-08-09 06:25:00,69.8,68.3,29.95,SSW,192,0.0,0.0,95,0.00,OVC,,0.00,WeatherDisplay:10.37,2013-08-09 10:25:00,
2013-08-09 06:30:00,69.8,68.3,29.95,SSW,192,0.0,0.0,95,0.00,OVC,,0.00,WeatherDisplay:10.37,2013-08-09 10:30:00,
2013-08-09 06:35:00,69.8,68.3,29.95,SSW,192,0.0,0.0,95,0.00,OVC,,0.00,WeatherDisplay:10.37,2013-08-09 10:35:00,
2013-08-09 06:40:00,69.8,68.3,29.95,SSW,192,0.0,0.0,95,0.00,OVC,,0.00,WeatherDisplay:10.37,2013-08-09 10:40:00,
2013-08-09 06:45:00,69.8,68.3,29.95,SSW,192,0.0,0.0,95,0.00,OVC,,0.00,WeatherDisplay:10.37,2013-08-09 10:45:00,
2013-08-09 06:50:00,69.8,68.3,29.95,SSW,192,0.0,0.0,95,0.00,-RA,,0.00,WeatherDisplay:10.37,2013-08-09 10:50:00,
2013-08-09 06:55:00,69.8,68.3,29.95,SSW,192,0.0,0.0,95,0.00,-RA,,0.00,WeatherDisplay:10.37,2013-08-09 10:55:00,
2013-08-09 07:00:00,69.8,68.3,29.95,SSW,192,0.0,2.0,95,0.00,-RA,,0.00,WeatherDisplay:10.37,2013-08-09 11:00:00,
2013-08-09 07:05:00,69.9,68.4,29.95,SSW,192,0.0,2.0,95,0.00,-RA,,0.00,WeatherDisplay:10.37,2013-08-09 11:05:00,
2013-08-09 07:10:00,69.9,68.4,29.95,SSW,193,0.0,1.0,95,0.00,-RA,,0.00,WeatherDisplay:10.37,2013-08-09 11:10:00,
2013-08-09 07:15:00,69.9,68.5,29.95,SSW,201,0.0,1.0,95,0.00,-RA,,0.00,WeatherDisplay:10.37,2013-08-09 11:15:00,
2013-08-09 07:20:00,70.0,68.5,29.95,SSW,211,0.0,0.0,95,0.00,-RA,,0.00,WeatherDisplay:10.37,2013-08-09 11:20:00,
2013-08-09 07:25:00,70.0,68.5,29.96,SSW,211,0.0,1.0,95,0.00,-RA,,0.00,WeatherDisplay:10.37,2013-08-09 11:25:00,
2013-08-09 07:30:00,70.1,68.6,29.95,SSW,211,0.0,1.0,95,0.01,-RA,,0.01,WeatherDisplay:10.37,2013-08-09 11:30:00,
2013-08-09 07:35:00,70.1,68.6,29.95,SSW,205,0.0,5.0,95,0.00,-RA,,0.01,WeatherDisplay:10.37,2013-08-09 11:35:00,
2013-08-09 07:40:00,70.2,68.7,29.95,SSW,199,0.0,4.0,95,0.00,-RA,,0.01,WeatherDisplay:10.37,2013-08-09 11:40:00,
2013-08-09 07:50:00,70.2,68.7,29.95,South,186,0.0,3.0,95,0.01,-RA,,0.02,WeatherDisplay:10.37,2013-08-09 11:50:00,
2013-08-09 07:55:00,70.3,68.7,29.95,SSW,194,0.0,1.0,95,0.01,-RA,,0.03,WeatherDisplay:10.37,2013-08-09 11:55:00,
2013-08-09 08:00:00,70.3,68.8,29.95,SSW,196,0.0,0.0,95,0.00,-RA,,0.03,WeatherDisplay:10.37,2013-08-09 12:00:00,
2013-08-09 08:05:00,70.3,68.8,29.95,SSW,196,0.0,1.0,95,0.00,-RA,,0.03,WeatherDisplay:10.37,2013-08-09 12:05:00,
2013-08-09 08:10:00,70.3,68.8,29.95,SSW,196,0.0,1.0,95,0.01,-RA,,0.04,WeatherDisplay:10.37,2013-08-09 12:10:00,
2013-08-09 08:15:00,70.3,68.8,29.95,SSW,195,0.0,1.0,95,0.00,-RA,,0.04,WeatherDisplay:10.37,2013-08-09 12:15:00,
2013-08-09 08:20:00,70.4,68.9,29.95,SSW,213,0.0,1.0,95,0.01,-RA,,0.05,WeatherDisplay:10.37,2013-08-09 12:20:00,
2013-08-09 08:25:00,70.4,68.9,29.95,WSW,242,0.0,1.0,95,0.00,-RA,,0.05,WeatherDisplay:10.37,2013-08-09 12:25:00,
2013-08-09 08:30:00,70.4,68.9,29.95,WSW,242,0.0,0.0,95,0.00,-RA,,0.05,WeatherDisplay:10.37,2013-08-09 12:30:00,
2013-08-09 08:35:00,70.4,68.9,29.95,WSW,242,0.0,0.0,95,0.01,-RA,,0.06,WeatherDisplay:10.37,2013-08-09 12:35:00,
2013-08-09 08:40:00,70.4,68.9,29.95,WSW,242,0.0,0.0,95,0.00,-RA,,0.06,WeatherDisplay:10.37,2013-08-09 12:40:00,
2013-08-09 08:45:00,70.4,68.9,29.94,WSW,242,0.0,0.0,95,0.01,-RA,,0.07,WeatherDisplay:10.37,2013-08-09 12:45:00,
2013-08-09 08:50:00,70.5,69.0,29.94,WSW,242,0.0,0.0,95,0.01,-RA,,0.08,WeatherDisplay:10.37,2013-08-09 12:50:00,
2013-08-09 08:55:00,70.5,69.0,29.94,WSW,242,0.0,0.0,95,0.01,-RA,,0.09,WeatherDisplay:10.37,2013-08-09 12:55:00,
2013-08-09 09:00:00,70.6,69.1,29.94,WSW,242,0.0,0.0,95,0.00,-RA,,0.09,WeatherDisplay:10.37,2013-08-09 13:00:00,
2013-08-09 09:05:00,70.7,69.2,29.93,WSW,242,0.0,0.0,95,0.01,-RA,,0.10,WeatherDisplay:10.37,2013-08-09 13:05:00,
2013-08-09 09:10:00,70.7,69.2,29.93,WSW,242,0.0,0.0,95,0.01,-RA,,0.11,WeatherDisplay:10.37,2013-08-09 13:10:00,
2013-08-09 09:20:00,70.9,69.7,29.93,WSW,242,0.0,1.0,96,0.00,-RA,,0.11,WeatherDisplay:10.37,2013-08-09 13:20:00,
2013-08-09 09:25:00,71.1,69.9,29.93,SSW,207,0.0,4.0,96,0.00,-RA,,0.11,WeatherDisplay:10.37,2013-08-09 13:25:00,
2013-08-09 09:30:00,71.1,69.9,29.93,South,184,1.0,3.0,96,0.00,-RA,,0.11,WeatherDisplay:10.37,2013-08-09 13:30:00,
2013-08-09 09:35:00,71.2,70.0,29.93,SSW,195,1.0,3.0,96,0.01,-RA,,0.12,WeatherDisplay:10.37,2013-08-09 13:35:00,
2013-08-09 09:40:00,71.3,70.1,29.92,SSW,207,0.0,1.0,96,0.00,-RA,,0.12,WeatherDisplay:10.37,2013-08-09 13:40:00,
2013-08-09 09:45:00,71.3,70.1,29.92,SSW,205,0.0,2.0,96,0.01,-RA,,0.13,WeatherDisplay:10.37,2013-08-09 13:45:00,
2013-08-09 09:50:00,71.4,70.2,29.92,SSW,204,1.0,2.0,96,0.00,-RA,,0.13,WeatherDisplay:10.37,2013-08-09 13:50:00,
2013-08-09 10:00:00,71.5,70.3,29.92,SSW,192,1.0,6.0,96,0.01,-RA,,0.14,WeatherDisplay:10.37,2013-08-09 14:00:00,
2013-08-09 10:10:00,71.6,70.4,29.92,South,187,0.0,4.0,96,0.02,-RA,,0.17,WeatherDisplay:10.37,2013-08-09 14:10:00,
2013-08-09 10:15:00,71.7,70.5,29.92,SSW,196,1.0,3.0,96,0.00,-RA,,0.17,WeatherDisplay:10.37,2013-08-09 14:15:00,
2013-08-09 10:20:00,71.7,70.5,29.92,SW,223,0.0,2.0,96,0.01,-RA,,0.18,WeatherDisplay:10.37,2013-08-09 14:20:00,
2013-08-09 10:25:00,71.7,70.5,29.91,SSW,205,0.0,3.0,96,0.01,-RA,,0.19,WeatherDisplay:10.37,2013-08-09 14:25:00,
2013-08-09 10:30:00,71.7,70.5,29.91,SSW,209,1.0,8.0,96,0.01,-RA,,0.20,WeatherDisplay:10.37,2013-08-09 14:30:00,
2013-08-09 10:35:00,71.7,70.5,29.91,SSW,201,1.0,9.0,96,0.00,-RA,,0.20,WeatherDisplay:10.37,2013-08-09 14:35:00,
2013-08-09 10:40:00,71.6,70.4,29.91,SSW,195,0.0,2.0,96,0.01,-RA,,0.21,WeatherDisplay:10.37,2013-08-09 14:40:00,
2013-08-09 10:45:00,71.5,70.3,29.91,SSW,197,1.0,8.0,96,0.01,-RA,,0.22,WeatherDisplay:10.37,2013-08-09 14:45:00,
2013-08-09 10:50:00,71.5,70.0,29.90,South,191,0.0,1.0,95,0.01,-RA,,0.23,WeatherDisplay:10.37,2013-08-09 14:50:00,
2013-08-09 10:55:00,71.5,70.0,29.90,SSE,155,0.0,9.0,95,0.00,-RA,,0.23,WeatherDisplay:10.37,2013-08-09 14:55:00,
2013-08-09 11:00:00,71.5,70.0,29.90,SE,146,0.0,2.0,95,0.00,-RA,,0.23,WeatherDisplay:10.37,2013-08-09 15:00:00,
2013-08-09 11:05:00,71.5,70.0,29.90,SSE,155,0.0,0.0,95,0.01,RA,,0.24,WeatherDisplay:10.37,2013-08-09 15:05:00,
2013-08-09 11:10:00,71.4,69.9,29.90,SSE,163,0.0,1.0,95,0.00,RA,,0.24,WeatherDisplay:10.37,2013-08-09 15:10:00,
2013-08-09 11:15:00,71.4,69.9,29.90,South,172,0.0,0.0,95,0.01,RA,,0.25,WeatherDisplay:10.37,2013-08-09 15:15:00,
2013-08-09 11:20:00,71.3,69.8,29.89,South,187,0.0,3.0,95,0.00,RA,,0.25,WeatherDisplay:10.37,2013-08-09 15:20:00,
2013-08-09 11:25:00,71.3,69.8,29.88,SSW,213,0.0,1.0,95,0.01,RA,,0.26,WeatherDisplay:10.37,2013-08-09 15:25:00,
2013-08-09 11:35:00,71.3,69.8,29.88,SW,219,0.0,4.0,95,0.01,RA,,0.27,WeatherDisplay:10.37,2013-08-09 15:35:00,
2013-08-09 11:40:00,71.3,70.1,29.88,SW,223,0.0,3.0,96,0.00,RA,,0.27,WeatherDisplay:10.37,2013-08-09 15:40:00,
2013-08-09 11:45:00,71.4,70.2,29.88,SW,221,0.0,2.0,96,0.01,RA,,0.28,WeatherDisplay:10.37,2013-08-09 15:45:00,
2013-08-09 11:50:00,71.5,70.3,29.88,SW,222,0.0,1.0,96,0.01,-RA,,0.29,WeatherDisplay:10.37,2013-08-09 15:50:00,
2013-08-09 11:55:00,71.5,70.3,29.87,SSW,200,1.0,4.0,96,0.01,-RA,,0.30,WeatherDisplay:10.37,2013-08-09 15:55:00,
2013-08-09 12:00:00,71.6,70.4,29.87,South,182,0.0,1.0,96,0.00,-RA,,0.30,WeatherDisplay:10.37,2013-08-09 16:00:00,
2013-08-09 12:05:00,71.7,70.5,29.87,SSW,197,1.0,5.0,96,0.01,RA,,0.31,WeatherDisplay:10.37,2013-08-09 16:05:00,
2013-08-09 12:10:00,71.7,70.5,29.87,SSW,208,0.0,1.0,96,0.01,RA,,0.32,WeatherDisplay:10.37,2013-08-09 16:10:00,
2013-08-09 12:15:00,71.7,70.5,29.86,SW,214,1.0,6.0,96,0.01,RA,,0.33,WeatherDisplay:10.37,2013-08-09 16:15:00,
2013-08-09 12:20:00,71.7,70.5,29.86,SSW,198,1.0,5.0,96,0.00,RA,,0.33,WeatherDisplay:10.37,2013-08-09 16:20:00,
2013-08-09 12:25:00,71.8,70.6,29.86,South,180,0.0,1.0,96,0.00,OVC,,0.33,WeatherDisplay:10.37,2013-08-09 16:25:00,
2013-08-09 12:30:00,71.8,70.6,29.86,SSE,163,0.0,4.0,96,0.00,OVC,,0.33,WeatherDisplay:10.37,2013-08-09 16:30:00,
2013-08-09 12:35:00,71.9,70.7,29.85,South,171,0.0,4.0,96,0.01,-RA,,0.34,WeatherDisplay:10.37,2013-08-09 16:35:00,
2013-08-09 12:40:00,71.9,70.7,29.85,SSW,197,1.0,6.0,96,0.00,-RA,,0.34,WeatherDisplay:10.37,2013-08-09 16:40:00,
2013-08-09 12:45:00,72.0,70.8,29.85,South,169,2.0,8.0,96,0.01,-RA,,0.35,WeatherDisplay:10.37,2013-08-09 16:45:00,
2013-08-09 12:50:00,72.0,70.8,29.85,SSE,160,1.0,3.0,96,0.00,-RA,,0.35,WeatherDisplay:10.37,2013-08-09 16:50:00,
2013-08-09 13:00:00,72.1,70.9,29.85,NW,322,0.0,7.0,96,0.00,-RA,,0.36,WeatherDisplay:10.37,2013-08-09 17:00:00,
2013-08-09 13:05:00,72.2,71.0,29.85,South,182,0.0,6.0,96,0.01,-RA,,0.37,WeatherDisplay:10.37,2013-08-09 17:05:00,
2013-08-09 13:10:00,72.2,71.0,29.84,South,177,0.0,10.0,96,0.01,-RA,,0.38,WeatherDisplay:10.37,2013-08-09 17:10:00,
2013-08-09 13:15:00,72.2,71.0,29.84,South,179,0.0,1.0,96,0.01,-RA,,0.39,WeatherDisplay:10.37,2013-08-09 17:15:00,
2013-08-09 13:20:00,72.2,71.0,29.84,South,190,1.0,7.0,96,0.00,-RA,,0.39,WeatherDisplay:10.37,2013-08-09 17:20:00,
2013-08-09 13:25:00,72.2,71.0,29.83,South,171,1.0,7.0,96,0.01,-RA,,0.40,WeatherDisplay:10.37,2013-08-09 17:25:00,
2013-08-09 13:30:00,72.1,70.9,29.83,South,177,0.0,6.0,96,0.01,-RA,,0.41,WeatherDisplay:10.37,2013-08-09 17:30:00,
2013-08-09 13:35:00,72.1,70.9,29.83,South,190,1.0,4.0,96,0.00,RA,,0.41,WeatherDisplay:10.37,2013-08-09 17:35:00,
2013-08-09 13:40:00,72.1,70.9,29.82,South,186,0.0,4.0,96,0.01,RA,,0.42,WeatherDisplay:10.37,2013-08-09 17:40:00,
2013-08-09 13:45:00,72.1,70.9,29.83,SW,216,0.0,3.0,96,0.00,RA,,0.42,WeatherDisplay:10.37,2013-08-09 17:45:00,
2013-08-09 13:50:00,72.0,70.8,29.83,WSW,238,0.0,4.0,96,0.01,RA,,0.43,WeatherDisplay:10.37,2013-08-09 17:50:00,
2013-08-09 13:55:00,72.0,70.8,29.83,WSW,241,0.0,5.0,96,0.04,RA,,0.47,WeatherDisplay:10.37,2013-08-09 17:55:00,
2013-08-09 14:00:00,71.9,70.7,29.82,SW,221,0.0,1.0,96,0.04,RA,,0.51,WeatherDisplay:10.37,2013-08-09 18:00:00,
2013-08-09 14:05:00,71.9,70.7,29.82,SW,214,0.0,3.0,96,0.08,RA,,0.59,WeatherDisplay:10.37,2013-08-09 18:05:00,
2013-08-09 14:10:00,71.8,70.6,29.82,SW,215,0.0,3.0,96,0.06,RA,,0.65,WeatherDisplay:10.37,2013-08-09 18:10:00,
2013-08-09 14:15:00,71.8,70.6,29.82,South,191,0.0,6.0,96,0.13,RA,,0.78,WeatherDisplay:10.37,2013-08-09 18:15:00,
2013-08-09 14:20:00,71.7,70.5,29.81,South,171,1.0,3.0,96,0.15,RA,,0.93,WeatherDisplay:10.37,2013-08-09 18:20:00,
2013-08-09 14:25:00,71.6,70.4,29.80,SSE,156,0.0,6.0,96,0.06,RA,,0.99,WeatherDisplay:10.37,2013-08-09 18:25:00,
2013-08-09 14:30:00,71.5,70.3,29.81,South,188,1.0,7.0,96,0.03,RA,,1.02,WeatherDisplay:10.37,2013-08-09 18:30:00,
2013-08-09 14:35:00,71.4,70.2,29.81,SSW,207,0.0,3.0,96,0.03,RA,,1.05,WeatherDisplay:10.37,2013-08-09 18:35:00,
2013-08-09 14:40:00,71.3,70.1,29.80,SW,220,0.0,2.0,96,0.04,RA,,1.09,WeatherDisplay:10.37,2013-08-09 18:40:00,
2013-08-09 14:45:00,71.2,70.0,29.80,ESE,121,0.0,1.0,96,0.04,RA,,1.13,WeatherDisplay:10.37,2013-08-09 18:45:00,
2013-08-09 14:50:00,71.1,69.9,29.79,ESE,109,1.0,3.0,96,0.03, +RA,,1.16,WeatherDisplay:10.37,2013-08-09 18:50:00,
2013-08-09 14:55:00,71.1,69.9,29.79,SE,128,1.0,5.0,96,0.01, +RA,,1.17,WeatherDisplay:10.37,2013-08-09 18:55:00,
2013-08-09 15:00:00,71.0,69.8,29.79,SSE,147,0.0,2.0,96,0.01, +RA,,1.18,WeatherDisplay:10.37,2013-08-09 19:00:00,
2013-08-09 15:05:00,71.0,69.8,29.78,WNW,293,0.0,3.0,96,0.02, +RA,,1.20,WeatherDisplay:10.37,2013-08-09 19:05:00,
2013-08-09 15:10:00,71.0,69.8,29.78,SW,219,0.0,5.0,96,0.12, +RA,,1.32,WeatherDisplay:10.37,2013-08-09 19:10:00,
2013-08-09 15:15:00,70.9,69.7,29.77,SSE,148,0.0,2.0,96,0.07, +RA,,1.39,WeatherDisplay:10.37,2013-08-09 19:15:00,
2013-08-09 15:20:00,70.8,69.6,29.77,SSE,165,0.0,0.0,96,0.02, +RA,,1.41,WeatherDisplay:10.37,2013-08-09 19:20:00,
2013-08-09 15:25:00,70.8,69.6,29.76,SSE,155,0.0,1.0,96,0.01, +RA,,1.42,WeatherDisplay:10.37,2013-08-09 19:25:00,
2013-08-09 15:30:00,70.8,69.6,29.76,East,99,0.0,3.0,96,0.01, +RA,,1.43,WeatherDisplay:10.37,2013-08-09 19:30:00,
2013-08-09 15:35:00,70.8,69.6,29.75,SE,132,0.0,2.0,96,0.00, +RA,,1.43,WeatherDisplay:10.37,2013-08-09 19:35:00,
2013-08-09 15:40:00,70.8,69.6,29.75,South,182,0.0,3.0,96,0.01, +RA,,1.44,WeatherDisplay:10.37,2013-08-09 19:40:00,
2013-08-09 15:45:00,70.8,69.6,29.75,SW,228,0.0,1.0,96,0.04, +RA,,1.48,WeatherDisplay:10.37,2013-08-09 19:45:00,
2013-08-09 15:50:00,70.9,69.7,29.74,SE,141,0.0,1.0,96,0.04, +RA,,1.52,WeatherDisplay:10.37,2013-08-09 19:50:00,
2013-08-09 15:55:00,70.9,69.7,29.74,SSE,166,0.0,0.0,96,0.02, +RA,,1.54,WeatherDisplay:10.37,2013-08-09 19:55:00,
2013-08-09 16:00:00,70.9,69.7,29.74,SSW,192,1.0,3.0,96,0.01, +RA,,1.55,WeatherDisplay:10.37,2013-08-09 20:00:00,
2013-08-09 16:05:00,71.0,69.8,29.74,SSW,193,0.0,0.0,96,0.02, +RA,,1.57,WeatherDisplay:10.37,2013-08-09 20:05:00,
2013-08-09 16:10:00,71.1,69.9,29.74,SSW,193,0.0,0.0,96,0.02, +RA,,1.59,WeatherDisplay:10.37,2013-08-09 20:10:00,
2013-08-09 16:15:00,71.1,69.9,29.74,SSW,193,0.0,1.0,96,0.02, +RA,,1.61,WeatherDisplay:10.37,2013-08-09 20:15:00,
2013-08-09 16:20:00,71.1,69.9,29.74,SSW,193,0.0,0.0,96,0.04, +RA,,1.65,WeatherDisplay:10.37,2013-08-09 20:20:00,
2013-08-09 16:25:00,71.2,70.0,29.74,SSW,193,0.0,0.0,96,0.03, +RA,,1.68,WeatherDisplay:10.37,2013-08-09 20:25:00,
2013-08-09 16:30:00,71.3,70.1,29.74,SSW,193,0.0,0.0,96,0.02, +RA,,1.70,WeatherDisplay:10.37,2013-08-09 20:30:00,
2013-08-09 16:40:00,71.5,70.3,29.74,SSW,193,0.0,0.0,96,0.00,-RA,,1.71,WeatherDisplay:10.37,2013-08-09 20:40:00,
2013-08-09 16:45:00,71.6,70.4,29.74,SSW,193,0.0,0.0,96,0.00,-RA,,1.71,WeatherDisplay:10.37,2013-08-09 20:45:00,
2013-08-09 16:50:00,71.6,70.4,29.74,SSW,193,0.0,0.0,96,0.00,-RA,,1.71,WeatherDisplay:10.37,2013-08-09 20:50:00,
2013-08-09 16:55:00,71.6,70.4,29.74,SSW,194,0.0,0.0,96,0.00,-RA,,1.71,WeatherDisplay:10.37,2013-08-09 20:55:00,
2013-08-09 17:00:00,71.7,70.5,29.74,SSW,194,0.0,0.0,96,0.00,-RA,,1.71,WeatherDisplay:10.37,2013-08-09 21:00:00,
2013-08-09 17:05:00,71.7,70.5,29.74,SSW,194,0.0,0.0,96,0.00,-RA,,1.71,WeatherDisplay:10.37,2013-08-09 21:05:00,
2013-08-09 17:10:00,71.7,70.5,29.74,SSW,194,0.0,2.0,96,0.00,-RA,,1.71,WeatherDisplay:10.37,2013-08-09 21:10:00,
2013-08-09 17:15:00,71.7,70.5,29.73,SSW,194,0.0,0.0,96,0.00,-RA,,1.71,WeatherDisplay:10.37,2013-08-09 21:15:00,
2013-08-09 17:20:00,71.8,70.6,29.73,SSW,194,0.0,0.0,96,0.00,-RA,,1.71,WeatherDisplay:10.37,2013-08-09 21:20:00,
2013-08-09 17:25:00,71.9,70.7,29.73,SSW,194,0.0,1.0,96,0.00,-RA,,1.71,WeatherDisplay:10.37,2013-08-09 21:25:00,
2013-08-09 17:30:00,72.1,70.9,29.73,SSW,194,0.0,0.0,96,0.00,-RA,,1.71,WeatherDisplay:10.37,2013-08-09 21:30:00,
2013-08-09 17:35:00,72.3,71.1,29.73,SSW,194,0.0,0.0,96,0.00,OVC,,1.71,WeatherDisplay:10.37,2013-08-09 21:35:00,
2013-08-09 17:40:00,72.4,71.2,29.73,SSW,194,0.0,0.0,96,0.00,OVC,,1.71,WeatherDisplay:10.37,2013-08-09 21:40:00,
2013-08-09 17:45:00,72.6,71.4,29.72,SSW,194,0.0,0.0,96,0.00,OVC,,1.71,WeatherDisplay:10.37,2013-08-09 21:45:00,
2013-08-09 17:50:00,72.9,71.7,29.72,SSW,194,0.0,1.0,96,0.00,OVC,,1.71,WeatherDisplay:10.37,2013-08-09 21:50:00,
2013-08-09 17:55:00,73.1,72.2,29.72,SSW,194,0.0,0.0,97,0.00,OVC,,1.71,WeatherDisplay:10.37,2013-08-09 21:55:00,
2013-08-09 18:00:00,73.3,72.4,29.72,SSW,194,0.0,0.0,97,0.00,OVC,,1.71,WeatherDisplay:10.37,2013-08-09 22:00:00,
2013-08-09 18:05:00,73.3,72.1,29.72,SSW,194,0.0,0.0,96,0.00,OVC,,1.71,WeatherDisplay:10.37,2013-08-09 22:05:00,
2013-08-09 18:10:00,73.4,72.1,29.71,SSW,194,0.0,0.0,96,0.00,OVC,,1.71,WeatherDisplay:10.37,2013-08-09 22:10:00,
2013-08-09 18:15:00,73.3,72.1,29.72,SSW,194,0.0,0.0,96,0.00,OVC,,1.71,WeatherDisplay:10.37,2013-08-09 22:15:00,
2013-08-09 18:20:00,73.3,72.1,29.72,SSW,194,0.0,0.0,96,0.00,OVC,,1.71,WeatherDisplay:10.37,2013-08-09 22:20:00,
2013-08-09 18:25:00,73.3,72.1,29.72,SSW,194,0.0,0.0,96,0.00,OVC,,1.71,WeatherDisplay:10.37,2013-08-09 22:25:00,
2013-08-09 18:35:00,73.3,72.1,29.72,SSW,194,0.0,0.0,96,0.00,OVC,,1.71,WeatherDisplay:10.37,2013-08-09 22:35:00,
2013-08-09 18:40:00,73.3,72.1,29.72,SSW,194,0.0,0.0,96,0.00,OVC,,1.71,WeatherDisplay:10.37,2013-08-09 22:40:00,
2013-08-09 18:45:00,73.3,72.1,29.72,SSW,194,0.0,0.0,96,0.00,OVC,,1.71,WeatherDisplay:10.37,2013-08-09 22:45:00,
2013-08-09 18:50:00,73.3,72.1,29.72,SSW,194,0.0,0.0,96,0.00,OVC,,1.71,WeatherDisplay:10.37,2013-08-09 22:50:00,
2013-08-09 18:55:00,73.3,72.1,29.72,SSW,194,0.0,0.0,96,0.00,OVC,,1.71,WeatherDisplay:10.37,2013-08-09 22:55:00,
2013-08-09 19:00:00,73.3,72.1,29.72,SSW,194,0.0,0.0,96,0.00,OVC,,1.71,WeatherDisplay:10.37,2013-08-09 23:00:00,
2013-08-09 19:05:00,73.2,72.0,29.72,SSW,194,0.0,1.0,96,0.00,OVC,,1.71,WeatherDisplay:10.37,2013-08-09 23:05:00,
2013-08-09 19:10:00,73.2,72.0,29.72,SSW,194,0.0,0.0,96,0.00,OVC,,1.71,WeatherDisplay:10.37,2013-08-09 23:10:00,
2013-08-09 19:15:00,73.1,71.9,29.71,SSW,194,0.0,0.0,96,0.00,OVC,,1.71,WeatherDisplay:10.37,2013-08-09 23:15:00,
2013-08-09 19:20:00,73.1,71.9,29.71,SSW,194,0.0,0.0,96,0.00,SCT,,1.71,WeatherDisplay:10.37,2013-08-09 23:20:00,
2013-08-09 19:25:00,73.1,71.9,29.71,SSW,194,0.0,0.0,96,0.00,SCT,,1.71,WeatherDisplay:10.37,2013-08-09 23:25:00,
2013-08-09 19:30:00,73.1,71.9,29.71,SSW,194,0.0,0.0,96,0.00,SCT,,1.71,WeatherDisplay:10.37,2013-08-09 23:30:00,
2013-08-09 19:35:00,73.1,71.9,29.72,SSW,195,0.0,1.0,96,0.00,SCT,,1.71,WeatherDisplay:10.37,2013-08-09 23:35:00,
2013-08-09 19:40:00,73.1,71.9,29.73,SSW,204,0.0,0.0,96,0.00,SCT,,1.71,WeatherDisplay:10.37,2013-08-09 23:40:00,
2013-08-09 19:45:00,73.1,71.9,29.73,SSW,208,0.0,0.0,96,0.00,SCT,,1.71,WeatherDisplay:10.37,2013-08-09 23:45:00,
2013-08-09 19:50:00,73.1,71.9,29.74,SSW,208,0.0,0.0,96,0.00,SCT,,1.71,WeatherDisplay:10.37,2013-08-09 23:50:00,
2013-08-09 19:55:00,73.1,71.9,29.74,SSW,208,0.0,0.0,96,0.00,SCT,,1.71,WeatherDisplay:10.37,2013-08-09 23:55:00,
2013-08-09 20:00:00,73.0,71.8,29.74,SSW,208,0.0,0.0,96,0.00,SCT,,1.71,WeatherDisplay:10.37,2013-08-10 00:00:00,
2013-08-09 20:05:00,72.9,71.7,29.74,SSW,208,0.0,0.0,96,0.00,SCT,,1.71,WeatherDisplay:10.37,2013-08-10 00:05:00,
2013-08-09 20:10:00,72.9,71.7,29.74,SSW,208,0.0,0.0,96,0.00,SCT,,1.71,WeatherDisplay:10.37,2013-08-10 00:10:00,
2013-08-09 20:15:00,72.8,71.6,29.74,SSW,208,0.0,0.0,96,0.00,SCT,,1.71,WeatherDisplay:10.37,2013-08-10 00:15:00,
2013-08-09 20:20:00,72.8,71.5,29.75,SSW,208,0.0,0.0,96,0.00,SCT,,1.71,WeatherDisplay:10.37,2013-08-10 00:20:00,
2013-08-09 20:25:00,72.6,71.4,29.75,SSW,208,0.0,0.0,96,0.00,SCT,,1.71,WeatherDisplay:10.37,2013-08-10 00:25:00,
2013-08-09 20:30:00,72.5,71.3,29.75,SSW,208,0.0,0.0,96,0.00,SCT,,1.71,WeatherDisplay:10.37,2013-08-10 00:30:00,
2013-08-09 20:35:00,72.4,71.2,29.75,SSW,208,0.0,0.0,96,0.00,SCT,,1.71,WeatherDisplay:10.37,2013-08-10 00:35:00,
2013-08-09 20:40:00,72.1,70.9,29.75,SSW,208,0.0,0.0,96,0.00,SCT,,1.71,WeatherDisplay:10.37,2013-08-10 00:40:00,
2013-08-09 20:45:00,72.0,70.8,29.75,SSW,208,0.0,0.0,96,0.00,SCT,,1.71,WeatherDisplay:10.37,2013-08-10 00:45:00,
2013-08-09 20:55:00,71.8,70.6,29.76,SSW,208,0.0,0.0,96,0.00,SCT,,1.71,WeatherDisplay:10.37,2013-08-10 00:55:00,
2013-08-09 21:00:00,71.7,70.5,29.76,SSW,208,0.0,0.0,96,0.00,SCT,,1.71,WeatherDisplay:10.37,2013-08-10 01:00:00,
2013-08-09 21:05:00,71.5,70.3,29.76,SSW,208,0.0,0.0,96,0.00,SCT,,1.71,WeatherDisplay:10.37,2013-08-10 01:05:00,
2013-08-09 21:10:00,71.4,70.2,29.76,SSW,208,0.0,0.0,96,0.00,SCT,,1.71,WeatherDisplay:10.37,2013-08-10 01:10:00,
2013-08-09 21:15:00,71.2,70.0,29.76,SSW,208,0.0,0.0,96,0.00,SCT,,1.71,WeatherDisplay:10.37,2013-08-10 01:15:00,
2013-08-09 21:20:00,71.1,69.9,29.76,SSW,208,0.0,0.0,96,0.00,FEW,,1.71,WeatherDisplay:10.37,2013-08-10 01:20:00,
2013-08-09 21:25:00,71.0,69.8,29.76,SSW,208,0.0,0.0,96,0.00,FEW,,1.71,WeatherDisplay:10.37,2013-08-10 01:25:00,
2013-08-09 21:35:00,70.9,69.7,29.76,SSW,208,0.0,0.0,96,0.00,FEW,,1.71,WeatherDisplay:10.37,2013-08-10 01:35:00,
2013-08-09 21:40:00,70.8,69.6,29.76,SSW,208,0.0,0.0,96,0.00,FEW,,1.71,WeatherDisplay:10.37,2013-08-10 01:40:00,
2013-08-09 21:45:00,70.7,69.5,29.76,SSW,208,0.0,0.0,96,0.00,FEW,,1.71,WeatherDisplay:10.37,2013-08-10 01:45:00,
2013-08-09 21:50:00,70.6,69.4,29.76,SSW,208,0.0,0.0,96,0.00,FEW,,1.71,WeatherDisplay:10.37,2013-08-10 01:50:00,
2013-08-09 21:55:00,70.5,69.3,29.76,SSW,208,0.0,0.0,96,0.00,FEW,,1.71,WeatherDisplay:10.37,2013-08-10 01:55:00,
2013-08-09 22:00:00,70.4,69.2,29.76,SSW,208,0.0,0.0,96,0.00,FEW,,1.71,WeatherDisplay:10.37,2013-08-10 02:00:00,
2013-08-09 22:05:00,70.3,69.1,29.76,SSW,208,0.0,0.0,96,0.00,CLR,,1.71,WeatherDisplay:10.37,2013-08-10 02:05:00,
2013-08-09 22:10:00,70.3,69.1,29.76,SSW,208,0.0,0.0,96,0.00,CLR,,1.71,WeatherDisplay:10.37,2013-08-10 02:10:00,
2013-08-09 22:15:00,70.2,69.0,29.75,SSW,208,0.0,0.0,96,0.00,CLR,,1.71,WeatherDisplay:10.37,2013-08-10 02:15:00,
2013-08-09 22:20:00,70.0,68.8,29.76,SSW,208,0.0,0.0,96,0.00,CLR,,1.71,WeatherDisplay:10.37,2013-08-10 02:20:00,
2013-08-09 22:25:00,69.9,68.7,29.76,SSW,208,0.0,0.0,96,0.00,CLR,,1.71,WeatherDisplay:10.37,2013-08-10 02:25:00,
2013-08-09 22:30:00,69.8,68.6,29.76,SSW,208,0.0,0.0,96,0.00,CLR,,1.71,WeatherDisplay:10.37,2013-08-10 02:30:00,
2013-08-09 22:35:00,69.7,68.5,29.76,SSW,208,0.0,0.0,96,0.00,CLR,,1.71,WeatherDisplay:10.37,2013-08-10 02:35:00,
2013-08-09 22:40:00,69.5,68.3,29.76,SSW,208,0.0,0.0,96,0.00,CLR,,1.71,WeatherDisplay:10.37,2013-08-10 02:40:00,
2013-08-09 22:45:00,69.4,68.2,29.76,SSW,208,0.0,0.0,96,0.00,CLR,,1.71,WeatherDisplay:10.37,2013-08-10 02:45:00,
2013-08-09 22:50:00,69.3,68.1,29.76,SSW,208,0.0,0.0,96,0.00,CLR,,1.71,WeatherDisplay:10.37,2013-08-10 02:50:00,
2013-08-09 22:55:00,69.3,68.1,29.76,SSW,208,0.0,0.0,96,0.00,CLR,,1.71,WeatherDisplay:10.37,2013-08-10 02:55:00,
2013-08-09 23:00:00,69.2,68.0,29.76,SSW,208,0.0,0.0,96,0.00,CLR,,1.71,WeatherDisplay:10.37,2013-08-10 03:00:00,
2013-08-09 23:05:00,69.1,67.9,29.76,SSW,208,0.0,0.0,96,0.00,CLR,,1.71,WeatherDisplay:10.37,2013-08-10 03:05:00,
2013-08-09 23:10:00,69.0,67.8,29.76,SSW,208,0.0,0.0,96,0.00,CLR,,1.71,WeatherDisplay:10.37,2013-08-10 03:10:00,
2013-08-09 23:15:00,68.9,67.7,29.76,SSW,208,0.0,0.0,96,0.00,CLR,,1.71,WeatherDisplay:10.37,2013-08-10 03:15:00,
2013-08-09 23:20:00,68.7,67.6,29.76,SSW,208,0.0,0.0,96,0.00,CLR,,1.71,WeatherDisplay:10.37,2013-08-10 03:20:00,
2013-08-09 23:25:00,68.6,67.5,29.76,SSW,208,0.0,0.0,96,0.00,CLR,,1.71,WeatherDisplay:10.37,2013-08-10 03:25:00,
2013-08-09 23:30:00,68.6,67.4,29.76,SSW,208,0.0,0.0,96,0.00,CLR,,1.71,WeatherDisplay:10.37,2013-08-10 03:30:00,
2013-08-09 23:35:00,68.5,67.3,29.76,SSW,208,0.0,0.0,96,0.00,CLR,,1.71,WeatherDisplay:10.37,2013-08-10 03:35:00,
2013-08-09 23:40:00,68.5,67.3,29.77,SSW,208,0.0,0.0,96,0.00,CLR,,1.71,WeatherDisplay:10.37,2013-08-10 03:40:00,
2013-08-09 23:45:00,68.4,67.2,29.77,SSW,208,0.0,0.0,96,0.00,CLR,,1.71,WeatherDisplay:10.37,2013-08-10 03:45:00,
2013-08-09 23:50:00,68.3,67.1,29.77,SSW,208,0.0,0.0,96,0.00,CLR,,1.71,WeatherDisplay:10.37,2013-08-10 03:50:00,
2013-08-09 23:55:00,68.2,67.0,29.77,SSW,208,0.0,0.0,96,0.00,CLR,,1.71,WeatherDisplay:10.37,2013-08-10 03:55:00,